Powrót do katalogu

FENGYUN 1C DEB

AktywnySSO
NORAD 30009·DEBRIS·🇨🇳 China

Wystrzelony May 10, 1999 z Taiyuan Satellite Launch Center

Loading…

Następne Przeloty (najbliższe 24 godziny)

TLE

ŚwieżeSource: Space-Track

Epoka: Sep 14, 2026, 02:02 UTC

1 30009U 99025MJ  26257.08534479  .00001228  00000-0  76926-3 0  9995
2 30009  98.9936 315.0099 0061645 285.0595  74.3757 14.05583484  3481

Śledź FENGYUN 1C DEB w czasie rzeczywistym z AllMySat

Download on the App Store